Powrót do katalogu

CZ-3B Y111 STAGE 3

AktywnyPO
NORAD 66176·ROCKET BODY·🇨🇳 China
Ta nazwa satelity nie została jeszcze potwierdzona przez oficjalne źródła.

Wystrzelony Oct 26, 2025 z Xichang Satellite Launch Center

Loading…

Następne Przeloty (najbliższe 24 godziny)

TLE

ŚwieżeSource: Space-Track

Epoka: Sep 14, 2026, 04:59 UTC

1 66176U 25242B   26257.20765044  .00066206  00000-0  45900-3 0  9992
2 66176  97.4144 346.6546 0049424 290.2619  69.3335 15.72538832 50203

Śledź CZ-3B Y111 STAGE 3 w czasie rzeczywistym z AllMySat

Download on the App Store